Year,Month,Day,Hour,Minute,Value (Times are PST for temperature in C)
2017,06,22,00,00,9.50
2017,06,22,00,01,9.50
2017,06,22,00,02,9.50
2017,06,22,00,03,9.50
2017,06,22,00,04,9.50
2017,06,22,00,05,9.50
2017,06,22,00,06,9.40
2017,06,22,00,07,9.40
2017,06,22,00,08,9.40
2017,06,22,00,09,9.40
2017,06,22,00,10,9.40
2017,06,22,00,11,9.40
2017,06,22,00,12,9.40
2017,06,22,00,13,9.40
2017,06,22,00,14,9.40
2017,06,22,00,15,9.40
2017,06,22,00,16,9.40
2017,06,22,00,17,9.40
2017,06,22,00,18,9.40
2017,06,22,00,19,9.40
2017,06,22,00,20,9.40
2017,06,22,00,21,9.40
2017,06,22,00,22,9.40
2017,06,22,00,23,9.40
2017,06,22,00,24,9.40
2017,06,22,00,25,9.40
2017,06,22,00,26,9.40
2017,06,22,00,27,9.40
2017,06,22,00,28,9.40
2017,06,22,00,29,9.40
2017,06,22,00,30,9.40
2017,06,22,00,31,9.40
2017,06,22,00,32,9.40
2017,06,22,00,33,9.40
2017,06,22,00,34,9.40
2017,06,22,00,35,9.40
2017,06,22,00,36,9.40
2017,06,22,00,37,9.40
2017,06,22,00,38,9.40
2017,06,22,00,39,9.40
2017,06,22,00,40,9.50
2017,06,22,00,41,9.40
2017,06,22,00,42,9.40
2017,06,22,00,43,9.40
2017,06,22,00,44,9.40
2017,06,22,00,45,9.40
2017,06,22,00,46,9.40
2017,06,22,00,47,9.40
2017,06,22,00,48,9.40
2017,06,22,00,49,9.40
2017,06,22,00,50,9.40
2017,06,22,00,51,9.30
2017,06,22,00,52,9.30
2017,06,22,00,53,9.30
2017,06,22,00,54,9.30
2017,06,22,00,55,9.20
2017,06,22,00,56,9.20
2017,06,22,00,57,9.20
2017,06,22,00,58,9.20
2017,06,22,00,59,9.10
2017,06,22,01,00,9.10
2017,06,22,01,01,9.10
2017,06,22,01,02,9.10
2017,06,22,01,03,9.10
2017,06,22,01,04,9.00
2017,06,22,01,05,9.00
2017,06,22,01,06,9.00
2017,06,22,01,07,9.10
2017,06,22,01,08,9.10
2017,06,22,01,09,9.10
2017,06,22,01,10,9.00
2017,06,22,01,11,9.00
2017,06,22,01,12,9.00
2017,06,22,01,13,9.00
2017,06,22,01,14,9.00
2017,06,22,01,15,9.00
2017,06,22,01,16,9.00
2017,06,22,01,17,9.00
2017,06,22,01,18,9.00
2017,06,22,01,19,9.00
2017,06,22,01,20,8.90
2017,06,22,01,21,8.90
2017,06,22,01,22,8.90
2017,06,22,01,23,8.90
2017,06,22,01,24,8.90
2017,06,22,01,25,8.90
2017,06,22,01,26,8.90
2017,06,22,01,27,8.90
2017,06,22,01,28,8.90
2017,06,22,01,29,8.90
2017,06,22,01,30,8.90
2017,06,22,01,31,8.90
2017,06,22,01,32,8.90
2017,06,22,01,33,8.90
2017,06,22,01,34,8.90
2017,06,22,01,35,8.90
2017,06,22,01,36,8.90
2017,06,22,01,37,8.90
2017,06,22,01,38,8.90
2017,06,22,01,39,8.90
2017,06,22,01,40,8.90
2017,06,22,01,41,8.90
2017,06,22,01,42,8.90
2017,06,22,01,43,8.90
2017,06,22,01,44,8.90
2017,06,22,01,45,8.80
2017,06,22,01,46,8.80
2017,06,22,01,47,8.80
2017,06,22,01,48,8.80
2017,06,22,01,49,8.80
2017,06,22,01,50,8.70
2017,06,22,01,51,8.70
2017,06,22,01,52,8.70
2017,06,22,01,53,8.70
2017,06,22,01,54,8.70
2017,06,22,01,55,8.70
2017,06,22,01,56,8.70
2017,06,22,01,57,8.60
2017,06,22,01,58,8.60
2017,06,22,01,59,8.60
2017,06,22,02,00,8.60
2017,06,22,02,01,8.60
2017,06,22,02,02,8.60
2017,06,22,02,03,8.60
2017,06,22,02,04,8.60
2017,06,22,02,05,8.60
2017,06,22,02,06,8.60
2017,06,22,02,07,8.60
2017,06,22,02,08,8.50
2017,06,22,02,09,8.50
2017,06,22,02,10,8.50
2017,06,22,02,11,8.50
2017,06,22,02,12,8.50
2017,06,22,02,13,8.40
2017,06,22,02,14,8.40
2017,06,22,02,15,8.40
2017,06,22,02,16,8.40
2017,06,22,02,17,8.40
2017,06,22,02,18,8.30
2017,06,22,02,19,8.30
2017,06,22,02,20,8.30
2017,06,22,02,21,8.30
2017,06,22,02,22,8.30
2017,06,22,02,23,8.30
2017,06,22,02,24,8.30
2017,06,22,02,25,8.20
2017,06,22,02,26,8.20
2017,06,22,02,27,8.20
2017,06,22,02,28,8.20
2017,06,22,02,29,8.20
2017,06,22,02,30,8.20
2017,06,22,02,31,8.20
2017,06,22,02,32,8.20
2017,06,22,02,33,8.20
2017,06,22,02,34,8.20
2017,06,22,02,35,8.20
2017,06,22,02,36,8.20
2017,06,22,02,37,8.10
2017,06,22,02,38,8.10
2017,06,22,02,39,8.10
2017,06,22,02,40,8.10
2017,06,22,02,41,8.10
2017,06,22,02,42,8.10
2017,06,22,02,43,8.20
2017,06,22,02,44,8.20
2017,06,22,02,45,8.20
2017,06,22,02,46,8.20
2017,06,22,02,47,8.30
2017,06,22,02,48,8.30
2017,06,22,02,49,8.30
2017,06,22,02,50,8.30
2017,06,22,02,51,8.30
2017,06,22,02,52,8.30
2017,06,22,02,53,8.30
2017,06,22,02,54,8.30
2017,06,22,02,55,8.20
2017,06,22,02,56,8.20
2017,06,22,02,57,8.20
2017,06,22,02,58,8.20
2017,06,22,02,59,8.10
2017,06,22,03,00,8.10
2017,06,22,03,01,8.10
2017,06,22,03,02,8.10
2017,06,22,03,03,8.10
2017,06,22,03,04,8.10
2017,06,22,03,05,8.10
2017,06,22,03,06,8.10
2017,06,22,03,07,8.10
2017,06,22,03,08,8.10
2017,06,22,03,09,8.10
2017,06,22,03,10,8.10
2017,06,22,03,11,8.10
2017,06,22,03,12,8.10
2017,06,22,03,13,8.10
2017,06,22,03,14,8.20
2017,06,22,03,15,8.20
2017,06,22,03,16,8.20
2017,06,22,03,17,8.30
2017,06,22,03,18,8.30
2017,06,22,03,19,8.30
2017,06,22,03,20,8.30
2017,06,22,03,21,8.20
2017,06,22,03,22,8.20
2017,06,22,03,23,8.20
2017,06,22,03,24,8.20
2017,06,22,03,25,8.20
2017,06,22,03,26,8.20
2017,06,22,03,27,8.20
2017,06,22,03,28,8.20
2017,06,22,03,29,8.20
2017,06,22,03,30,8.20
2017,06,22,03,31,8.20
2017,06,22,03,32,8.10
2017,06,22,03,33,8.10
2017,06,22,03,34,8.20
2017,06,22,03,35,8.20
2017,06,22,03,36,8.30
2017,06,22,03,37,8.40
2017,06,22,03,38,8.40
2017,06,22,03,39,8.40
2017,06,22,03,40,8.40
2017,06,22,03,41,8.40
2017,06,22,03,42,8.40
2017,06,22,03,43,8.30
2017,06,22,03,44,8.30
2017,06,22,03,45,8.20
2017,06,22,03,46,8.20
2017,06,22,03,47,8.20
2017,06,22,03,48,8.10
2017,06,22,03,49,8.10
2017,06,22,03,50,8.10
2017,06,22,03,51,8.10
2017,06,22,03,52,8.00
2017,06,22,03,53,8.00
2017,06,22,03,54,8.00
2017,06,22,03,55,7.90
2017,06,22,03,56,7.90
2017,06,22,03,57,7.90
2017,06,22,03,58,7.90
2017,06,22,03,59,7.80
2017,06,22,04,00,7.80
2017,06,22,04,01,7.80
2017,06,22,04,02,7.80
2017,06,22,04,03,7.70
2017,06,22,04,04,7.70
2017,06,22,04,05,7.70
2017,06,22,04,06,7.60
2017,06,22,04,07,7.60
2017,06,22,04,08,7.60
2017,06,22,04,09,7.60
2017,06,22,04,10,7.50
2017,06,22,04,11,7.50
2017,06,22,04,12,7.50
2017,06,22,04,13,7.50
2017,06,22,04,14,7.50
2017,06,22,04,15,7.50
2017,06,22,04,16,7.40
2017,06,22,04,17,7.40
2017,06,22,04,18,7.40
2017,06,22,04,19,7.40
2017,06,22,04,20,7.40
2017,06,22,04,21,7.40
2017,06,22,04,22,7.40
2017,06,22,04,23,7.40
2017,06,22,04,24,7.40
2017,06,22,04,25,7.40
2017,06,22,04,26,7.40
2017,06,22,04,27,7.40
2017,06,22,04,28,7.40
2017,06,22,04,29,7.50
2017,06,22,04,30,7.40
2017,06,22,04,31,7.50
2017,06,22,04,32,7.50
2017,06,22,04,33,7.50
2017,06,22,04,34,7.50
2017,06,22,04,35,7.60
2017,06,22,04,36,7.60
2017,06,22,04,37,7.60
2017,06,22,04,38,7.60
2017,06,22,04,39,7.70
2017,06,22,04,40,7.70
2017,06,22,04,41,7.80
2017,06,22,04,42,7.80
2017,06,22,04,43,7.80
2017,06,22,04,44,7.80
2017,06,22,04,45,7.80
2017,06,22,04,46,7.80
2017,06,22,04,47,7.80
2017,06,22,04,48,7.80
2017,06,22,04,49,7.80
2017,06,22,04,50,7.80
2017,06,22,04,51,7.90
2017,06,22,04,52,7.90
2017,06,22,04,53,7.90
2017,06,22,04,54,7.90
2017,06,22,04,55,7.90
2017,06,22,04,56,7.80
2017,06,22,04,57,7.80
2017,06,22,04,58,7.80
2017,06,22,04,59,7.80
2017,06,22,05,00,7.80
2017,06,22,05,01,7.80
2017,06,22,05,02,7.80
2017,06,22,05,03,7.80
2017,06,22,05,04,7.70
2017,06,22,05,05,7.70
2017,06,22,05,06,7.70
2017,06,22,05,07,7.70
2017,06,22,05,08,7.70
2017,06,22,05,09,7.70
2017,06,22,05,10,7.70
2017,06,22,05,11,7.70
2017,06,22,05,12,7.70
2017,06,22,05,13,7.80
2017,06,22,05,14,7.80
2017,06,22,05,15,7.80
2017,06,22,05,16,7.90
2017,06,22,05,17,7.90
2017,06,22,05,18,8.00
2017,06,22,05,19,8.00
2017,06,22,05,20,8.00
2017,06,22,05,21,8.00
2017,06,22,05,22,8.00
2017,06,22,05,23,8.00
2017,06,22,05,24,8.10
2017,06,22,05,25,8.10
2017,06,22,05,26,8.10
2017,06,22,05,27,8.20
2017,06,22,05,28,8.20
2017,06,22,05,29,8.30
2017,06,22,05,30,8.30
2017,06,22,05,31,8.30
2017,06,22,05,32,8.30
2017,06,22,05,33,8.30
2017,06,22,05,34,8.30
2017,06,22,05,35,8.30
2017,06,22,05,36,8.30
2017,06,22,05,37,8.30
2017,06,22,05,38,8.30
2017,06,22,05,39,8.30
2017,06,22,05,40,8.30
2017,06,22,05,41,8.30
2017,06,22,05,42,8.40
2017,06,22,05,43,8.40
2017,06,22,05,44,8.40
2017,06,22,05,45,8.30
2017,06,22,05,46,8.30
2017,06,22,05,47,8.30
2017,06,22,05,48,8.30
2017,06,22,05,49,8.30
2017,06,22,05,50,8.30
2017,06,22,05,51,8.30
2017,06,22,05,52,8.30
2017,06,22,05,53,8.40
2017,06,22,05,54,8.40
2017,06,22,05,55,8.40
2017,06,22,05,56,8.40
2017,06,22,05,57,8.50
2017,06,22,05,58,8.50
2017,06,22,05,59,8.50
2017,06,22,06,00,8.50
2017,06,22,06,01,8.50
2017,06,22,06,02,8.60
2017,06,22,06,03,8.70
2017,06,22,06,04,8.70
2017,06,22,06,05,8.70
2017,06,22,06,06,8.70
2017,06,22,06,07,8.70
2017,06,22,06,08,8.80
2017,06,22,06,09,8.80
2017,06,22,06,10,8.80
2017,06,22,06,11,8.90
2017,06,22,06,12,8.90
2017,06,22,06,13,8.90
2017,06,22,06,14,9.00
2017,06,22,06,15,9.00
2017,06,22,06,16,9.00
2017,06,22,06,17,9.10
2017,06,22,06,18,9.10
2017,06,22,06,19,9.10
2017,06,22,06,20,9.10
2017,06,22,06,21,9.10
2017,06,22,06,22,9.10
2017,06,22,06,23,9.20
2017,06,22,06,24,9.20
2017,06,22,06,25,9.20
2017,06,22,06,26,9.30
2017,06,22,06,27,9.40
2017,06,22,06,28,9.40
2017,06,22,06,29,9.50
2017,06,22,06,30,9.60
2017,06,22,06,31,9.60
2017,06,22,06,32,9.70
2017,06,22,06,33,9.80
2017,06,22,06,34,9.90
2017,06,22,06,35,10.00
2017,06,22,06,36,10.10
2017,06,22,06,37,10.10
2017,06,22,06,38,10.20
2017,06,22,06,39,10.30
2017,06,22,06,40,10.40
2017,06,22,06,41,10.40
2017,06,22,06,42,10.40
2017,06,22,06,43,10.50
2017,06,22,06,44,10.50
2017,06,22,06,45,10.60
2017,06,22,06,46,10.60
2017,06,22,06,47,10.70
2017,06,22,06,48,10.70
2017,06,22,06,49,10.80
2017,06,22,06,50,10.90
2017,06,22,06,51,11.00
2017,06,22,06,52,11.00
2017,06,22,06,53,11.10
2017,06,22,06,54,11.20
2017,06,22,06,55,11.30
2017,06,22,06,56,11.30
2017,06,22,06,57,11.40
2017,06,22,06,58,11.40
2017,06,22,06,59,11.50
2017,06,22,07,00,11.50
2017,06,22,07,01,11.50
2017,06,22,07,02,11.60
2017,06,22,07,03,11.60
2017,06,22,07,04,11.70
2017,06,22,07,05,11.70
2017,06,22,07,06,11.80
2017,06,22,07,07,11.80
2017,06,22,07,08,11.90
2017,06,22,07,09,12.00
2017,06,22,07,10,12.00
2017,06,22,07,11,12.00
2017,06,22,07,12,12.00
2017,06,22,07,13,12.10
2017,06,22,07,14,12.00
2017,06,22,07,15,12.10
2017,06,22,07,16,12.10
2017,06,22,07,17,12.10
2017,06,22,07,18,12.20
2017,06,22,07,19,12.30
2017,06,22,07,20,12.40
2017,06,22,07,21,12.40
2017,06,22,07,22,12.50
2017,06,22,07,23,12.60
2017,06,22,07,24,12.60
2017,06,22,07,25,12.70
2017,06,22,07,26,12.80
2017,06,22,07,27,12.90
2017,06,22,07,28,13.00
2017,06,22,07,29,13.10
2017,06,22,07,30,13.20
2017,06,22,07,31,13.30
2017,06,22,07,32,13.40
2017,06,22,07,33,13.40
2017,06,22,07,34,13.50
2017,06,22,07,35,13.60
2017,06,22,07,36,13.70
2017,06,22,07,37,13.80
2017,06,22,07,38,13.80
2017,06,22,07,39,13.90
2017,06,22,07,40,14.00
2017,06,22,07,41,14.10
2017,06,22,07,42,14.10
2017,06,22,07,43,14.10
2017,06,22,07,44,14.10
2017,06,22,07,45,14.10
2017,06,22,07,46,14.20
2017,06,22,07,47,14.20
2017,06,22,07,48,14.30
2017,06,22,07,49,14.30
2017,06,22,07,50,14.40
2017,06,22,07,51,14.50
2017,06,22,07,52,14.60
2017,06,22,07,53,14.70
2017,06,22,07,54,14.80
2017,06,22,07,55,14.90
2017,06,22,07,56,14.90
2017,06,22,07,57,15.00
2017,06,22,07,58,15.00
2017,06,22,07,59,15.10
2017,06,22,08,00,15.10
2017,06,22,08,01,15.20
2017,06,22,08,02,15.20
2017,06,22,08,03,15.20
2017,06,22,08,04,15.20
2017,06,22,08,05,15.20
2017,06,22,08,06,15.20
2017,06,22,08,07,15.20
2017,06,22,08,08,15.10
2017,06,22,08,09,15.10
2017,06,22,08,10,15.10
2017,06,22,08,11,15.10
2017,06,22,08,12,15.10
2017,06,22,08,13,15.20
2017,06,22,08,14,15.20
2017,06,22,08,15,15.20
2017,06,22,08,16,15.20
2017,06,22,08,17,15.30
2017,06,22,08,18,15.30
2017,06,22,08,19,15.40
2017,06,22,08,20,15.40
2017,06,22,08,21,15.50
2017,06,22,08,22,15.60
2017,06,22,08,23,15.70
2017,06,22,08,24,15.70
2017,06,22,08,25,15.80
2017,06,22,08,26,15.80
2017,06,22,08,27,15.80
2017,06,22,08,28,15.90
2017,06,22,08,29,15.90
2017,06,22,08,30,15.90
2017,06,22,08,31,15.90
2017,06,22,08,32,16.00
2017,06,22,08,33,16.00
2017,06,22,08,34,16.00
2017,06,22,08,35,16.00
2017,06,22,08,36,15.80
2017,06,22,08,37,15.80
2017,06,22,08,38,15.70
2017,06,22,08,39,15.60
2017,06,22,08,40,15.50
2017,06,22,08,41,15.40
2017,06,22,08,42,15.40
2017,06,22,08,43,15.40
2017,06,22,08,44,15.40
2017,06,22,08,45,15.40
2017,06,22,08,46,15.50
2017,06,22,08,47,15.60
2017,06,22,08,48,15.70
2017,06,22,08,49,15.80
2017,06,22,08,50,15.90
2017,06,22,08,51,16.00
2017,06,22,08,52,16.10
2017,06,22,08,53,16.20
2017,06,22,08,54,16.30
2017,06,22,08,55,16.30
2017,06,22,08,56,16.30
2017,06,22,08,57,16.20
2017,06,22,08,58,16.20
2017,06,22,08,59,16.10
2017,06,22,09,00,16.10
2017,06,22,09,01,16.00
2017,06,22,09,02,15.90
2017,06,22,09,03,15.90
2017,06,22,09,04,15.90
2017,06,22,09,05,16.00
2017,06,22,09,06,16.00
2017,06,22,09,07,16.10
2017,06,22,09,08,16.10
2017,06,22,09,09,16.10
2017,06,22,09,10,16.00
2017,06,22,09,11,16.00
2017,06,22,09,12,15.90
2017,06,22,09,13,15.90
2017,06,22,09,14,15.90
2017,06,22,09,15,15.80
2017,06,22,09,16,15.80
2017,06,22,09,17,15.80
2017,06,22,09,18,15.80
2017,06,22,09,19,15.90
2017,06,22,09,20,16.00
2017,06,22,09,21,16.10
2017,06,22,09,22,16.10
2017,06,22,09,23,16.20
2017,06,22,09,24,16.20
2017,06,22,09,25,16.20
2017,06,22,09,26,16.20
2017,06,22,09,27,16.20
2017,06,22,09,28,16.20
2017,06,22,09,29,16.30
2017,06,22,09,30,16.40
2017,06,22,09,31,16.50
2017,06,22,09,32,16.70
2017,06,22,09,33,16.80
2017,06,22,09,34,16.80
2017,06,22,09,35,16.90
2017,06,22,09,36,17.00
2017,06,22,09,37,17.00
2017,06,22,09,38,17.00
2017,06,22,09,39,17.10
2017,06,22,09,40,17.10
2017,06,22,09,41,17.10
2017,06,22,09,42,17.10
2017,06,22,09,43,17.10
2017,06,22,09,44,17.20
2017,06,22,09,45,17.20
2017,06,22,09,46,17.30
2017,06,22,09,47,17.30
2017,06,22,09,48,17.30
2017,06,22,09,49,17.40
2017,06,22,09,50,17.50
2017,06,22,09,51,17.60
2017,06,22,09,52,17.60
2017,06,22,09,53,17.70
2017,06,22,09,54,17.70
2017,06,22,09,55,17.70
2017,06,22,09,56,17.60
2017,06,22,09,57,17.60
2017,06,22,09,58,17.50
2017,06,22,09,59,17.50
2017,06,22,10,00,17.50
2017,06,22,10,01,17.40
2017,06,22,10,02,17.40
2017,06,22,10,03,17.40
2017,06,22,10,04,17.40
2017,06,22,10,05,17.40
2017,06,22,10,06,17.40
2017,06,22,10,07,17.50
2017,06,22,10,08,17.50
2017,06,22,10,09,17.50
2017,06,22,10,10,17.40
2017,06,22,10,11,17.30
2017,06,22,10,12,17.20
2017,06,22,10,13,17.20
2017,06,22,10,14,17.20
2017,06,22,10,15,17.20
2017,06,22,10,16,17.30
2017,06,22,10,17,17.30
2017,06,22,10,18,17.30
2017,06,22,10,19,17.30
2017,06,22,10,20,17.40
2017,06,22,10,21,17.50
2017,06,22,10,22,17.50
2017,06,22,10,23,17.50
2017,06,22,10,24,17.50
2017,06,22,10,25,17.50
2017,06,22,10,26,17.60
2017,06,22,10,27,17.70
2017,06,22,10,28,17.70
2017,06,22,10,29,17.70
2017,06,22,10,30,17.70
2017,06,22,10,31,17.80
2017,06,22,10,32,17.80
2017,06,22,10,33,17.80
2017,06,22,10,34,17.70
2017,06,22,10,35,17.60
2017,06,22,10,36,17.40
2017,06,22,10,37,17.30
2017,06,22,10,38,17.30
2017,06,22,10,39,17.40
2017,06,22,10,40,17.40
2017,06,22,10,41,17.50
2017,06,22,10,42,17.50
2017,06,22,10,43,17.40
2017,06,22,10,44,17.30
2017,06,22,10,45,17.30
2017,06,22,10,46,17.30
2017,06,22,10,47,17.40
2017,06,22,10,48,17.40
2017,06,22,10,49,17.50
2017,06,22,10,50,17.60
2017,06,22,10,51,17.70
2017,06,22,10,52,17.80
2017,06,22,10,53,17.80
2017,06,22,10,54,17.80
2017,06,22,10,55,17.80
2017,06,22,10,56,17.80
2017,06,22,10,57,17.80
2017,06,22,10,58,17.80
2017,06,22,10,59,17.80
2017,06,22,11,00,17.90
2017,06,22,11,01,17.90
2017,06,22,11,02,18.00
2017,06,22,11,03,18.10
2017,06,22,11,04,18.20
2017,06,22,11,05,18.30
2017,06,22,11,06,18.40
2017,06,22,11,07,18.50
2017,06,22,11,08,18.50
2017,06,22,11,09,18.60
2017,06,22,11,10,18.60
2017,06,22,11,11,18.60
2017,06,22,11,12,18.60
2017,06,22,11,13,18.60
2017,06,22,11,14,18.60
2017,06,22,11,15,18.60
2017,06,22,11,16,18.60
2017,06,22,11,17,18.60
2017,06,22,11,18,18.60
2017,06,22,11,19,18.60
2017,06,22,11,20,18.60
2017,06,22,11,21,18.70
2017,06,22,11,22,18.70
2017,06,22,11,23,18.70
2017,06,22,11,24,18.70
2017,06,22,11,25,18.70
2017,06,22,11,26,18.70
2017,06,22,11,27,18.70
2017,06,22,11,28,18.70
2017,06,22,11,29,18.80
2017,06,22,11,30,18.80
2017,06,22,11,31,18.90
2017,06,22,11,32,19.00
2017,06,22,11,33,19.10
2017,06,22,11,34,19.20
2017,06,22,11,35,19.30
2017,06,22,11,36,19.30
2017,06,22,11,37,19.40
2017,06,22,11,38,19.50
2017,06,22,11,39,19.60
2017,06,22,11,40,19.70
2017,06,22,11,41,19.70
2017,06,22,11,42,19.70
2017,06,22,11,43,19.60
2017,06,22,11,44,19.60
2017,06,22,11,45,19.60
2017,06,22,11,46,19.60
2017,06,22,11,47,19.60
2017,06,22,11,48,19.60
2017,06,22,11,49,19.60
2017,06,22,11,50,19.60
2017,06,22,11,51,19.80
2017,06,22,11,52,19.90
2017,06,22,11,53,19.90
2017,06,22,11,54,19.90
2017,06,22,11,55,19.80
2017,06,22,11,56,19.70
2017,06,22,11,57,19.70
2017,06,22,11,58,19.70
2017,06,22,11,59,19.60
2017,06,22,12,00,19.60
2017,06,22,12,01,19.50
2017,06,22,12,02,19.50
2017,06,22,12,03,19.50
2017,06,22,12,04,19.50
2017,06,22,12,05,19.50
2017,06,22,12,06,19.50
2017,06,22,12,07,19.60
2017,06,22,12,08,19.70
2017,06,22,12,09,19.80
2017,06,22,12,10,19.90
2017,06,22,12,11,20.00
2017,06,22,12,12,20.00
2017,06,22,12,13,20.00
2017,06,22,12,14,20.10
2017,06,22,12,15,20.00
2017,06,22,12,16,20.10
2017,06,22,12,17,20.10
2017,06,22,12,18,20.00
2017,06,22,12,19,20.00
2017,06,22,12,20,19.90
2017,06,22,12,21,19.90
2017,06,22,12,22,19.80
2017,06,22,12,23,19.70
2017,06,22,12,24,19.70
2017,06,22,12,25,19.70
2017,06,22,12,26,19.70
2017,06,22,12,27,19.70
2017,06,22,12,28,19.70
2017,06,22,12,29,19.70
2017,06,22,12,30,19.70
2017,06,22,12,31,19.70
2017,06,22,12,32,19.80
2017,06,22,12,33,19.80
2017,06,22,12,34,19.90
2017,06,22,12,35,19.90
2017,06,22,12,36,19.90
2017,06,22,12,37,19.90
2017,06,22,12,38,19.80
2017,06,22,12,39,19.80
2017,06,22,12,40,19.80
2017,06,22,12,41,19.80
2017,06,22,12,42,19.80
2017,06,22,12,43,19.70
2017,06,22,12,44,19.70
2017,06,22,12,45,19.70
2017,06,22,12,46,19.80
2017,06,22,12,47,19.80
2017,06,22,12,48,19.70
2017,06,22,12,49,19.80
2017,06,22,12,50,19.80
2017,06,22,12,51,19.70
2017,06,22,12,52,19.80
2017,06,22,12,53,19.80
2017,06,22,12,54,19.80
2017,06,22,12,55,19.80
2017,06,22,12,56,19.70
2017,06,22,12,57,19.70
2017,06,22,12,58,19.70
2017,06,22,12,59,19.70
2017,06,22,13,00,19.70
2017,06,22,13,01,19.70
2017,06,22,13,02,19.70
2017,06,22,13,03,19.70
2017,06,22,13,04,19.70
2017,06,22,13,05,19.60
2017,06,22,13,06,19.70
2017,06,22,13,07,19.70
2017,06,22,13,08,19.70
2017,06,22,13,09,19.70
2017,06,22,13,10,19.70
2017,06,22,13,11,19.80
2017,06,22,13,12,19.80
2017,06,22,13,13,19.80
2017,06,22,13,14,19.90
2017,06,22,13,15,20.00
2017,06,22,13,16,20.10
2017,06,22,13,17,20.20
2017,06,22,13,18,20.30
2017,06,22,13,19,20.40
2017,06,22,13,20,20.40
2017,06,22,13,21,20.30
2017,06,22,13,22,20.30
2017,06,22,13,23,20.30
2017,06,22,13,24,20.30
2017,06,22,13,25,20.30
2017,06,22,13,26,20.10
2017,06,22,13,27,20.10
2017,06,22,13,28,20.00
2017,06,22,13,29,19.90
2017,06,22,13,30,19.90
2017,06,22,13,31,20.00
2017,06,22,13,32,20.00
2017,06,22,13,33,20.10
2017,06,22,13,34,20.20
2017,06,22,13,35,20.30
2017,06,22,13,36,20.40
2017,06,22,13,37,20.50
2017,06,22,13,38,20.50
2017,06,22,13,39,20.60
2017,06,22,13,40,20.60
2017,06,22,13,41,20.70
2017,06,22,13,42,20.70
2017,06,22,13,43,20.70
2017,06,22,13,44,20.60
2017,06,22,13,45,20.50
2017,06,22,13,46,20.40
2017,06,22,13,47,20.40
2017,06,22,13,48,20.50
2017,06,22,13,49,20.50
2017,06,22,13,50,20.60
2017,06,22,13,51,20.70
2017,06,22,13,52,20.70
2017,06,22,13,53,20.80
2017,06,22,13,54,20.70
2017,06,22,13,55,20.70
2017,06,22,13,56,20.70
2017,06,22,13,57,20.60
2017,06,22,13,58,20.50
2017,06,22,13,59,20.40
2017,06,22,14,00,20.30
2017,06,22,14,01,20.30
2017,06,22,14,02,20.20
2017,06,22,14,03,20.20
2017,06,22,14,04,20.20
2017,06,22,14,05,20.30
2017,06,22,14,06,20.20
2017,06,22,14,07,20.20
2017,06,22,14,08,20.10
2017,06,22,14,09,20.00
2017,06,22,14,10,19.90
2017,06,22,14,11,19.80
2017,06,22,14,12,19.80
2017,06,22,14,13,19.90
2017,06,22,14,14,20.00
2017,06,22,14,15,20.10
2017,06,22,14,16,20.20
2017,06,22,14,17,20.20
2017,06,22,14,18,20.10
2017,06,22,14,19,20.10
2017,06,22,14,20,20.10
2017,06,22,14,21,20.10
2017,06,22,14,22,20.10
2017,06,22,14,23,20.20
2017,06,22,14,24,20.20
2017,06,22,14,25,20.20
2017,06,22,14,26,20.30
2017,06,22,14,27,20.30
2017,06,22,14,28,20.40
2017,06,22,14,29,20.40
2017,06,22,14,30,20.50
2017,06,22,14,31,20.60
2017,06,22,14,32,20.60
2017,06,22,14,33,20.60
2017,06,22,14,34,20.60
2017,06,22,14,35,20.60
2017,06,22,14,36,20.60
2017,06,22,14,37,20.60
2017,06,22,14,38,20.70
2017,06,22,14,39,20.70
2017,06,22,14,40,20.70
2017,06,22,14,41,20.70
2017,06,22,14,42,20.60
2017,06,22,14,43,20.50
2017,06,22,14,44,20.40
2017,06,22,14,45,20.40
2017,06,22,14,46,20.30
2017,06,22,14,47,20.30
2017,06,22,14,48,20.30
2017,06,22,14,49,20.30
2017,06,22,14,50,20.40
2017,06,22,14,51,20.40
2017,06,22,14,52,20.40
2017,06,22,14,53,20.40
2017,06,22,14,54,20.40
2017,06,22,14,55,20.40
2017,06,22,14,56,20.40
2017,06,22,14,57,20.40
2017,06,22,14,58,20.30
2017,06,22,14,59,20.20
2017,06,22,15,00,20.20
2017,06,22,15,01,20.20
2017,06,22,15,02,20.20
2017,06,22,15,03,20.30
2017,06,22,15,04,20.30
2017,06,22,15,05,20.30
2017,06,22,15,06,20.30
2017,06,22,15,07,20.30
2017,06,22,15,08,20.30
2017,06,22,15,09,20.40
2017,06,22,15,10,20.40
2017,06,22,15,11,20.40
2017,06,22,15,12,20.40
2017,06,22,15,13,20.40
2017,06,22,15,14,20.40
2017,06,22,15,15,20.40
2017,06,22,15,16,20.40
2017,06,22,15,17,20.40
2017,06,22,15,18,20.40
2017,06,22,15,19,20.40
2017,06,22,15,20,20.40
2017,06,22,15,21,20.40
2017,06,22,15,22,20.50
2017,06,22,15,23,20.50
2017,06,22,15,24,20.60
2017,06,22,15,25,20.60
2017,06,22,15,26,20.60
2017,06,22,15,27,20.50
2017,06,22,15,28,20.50
2017,06,22,15,29,20.50
2017,06,22,15,30,20.50
2017,06,22,15,31,20.50
2017,06,22,15,32,20.50
2017,06,22,15,33,20.40
2017,06,22,15,34,20.50
2017,06,22,15,35,20.50
2017,06,22,15,36,20.40
2017,06,22,15,37,20.40
2017,06,22,15,38,20.40
2017,06,22,15,39,20.40
2017,06,22,15,40,20.40
2017,06,22,15,41,20.50
2017,06,22,15,42,20.50
2017,06,22,15,43,20.60
2017,06,22,15,44,20.60
2017,06,22,15,45,20.60
2017,06,22,15,46,20.70
2017,06,22,15,47,20.70
2017,06,22,15,48,20.70
2017,06,22,15,49,20.70
2017,06,22,15,50,20.70
2017,06,22,15,51,20.80
2017,06,22,15,52,20.80
2017,06,22,15,53,20.90
2017,06,22,15,54,20.90
2017,06,22,15,55,20.80
2017,06,22,15,56,20.80
2017,06,22,15,57,20.80
2017,06,22,15,58,20.70
2017,06,22,15,59,20.70
2017,06,22,16,00,20.70
2017,06,22,16,01,20.70
2017,06,22,16,02,20.70
2017,06,22,16,03,20.70
2017,06,22,16,04,20.70
2017,06,22,16,05,20.60
2017,06,22,16,06,20.50
2017,06,22,16,07,20.40
2017,06,22,16,08,20.30
2017,06,22,16,09,20.20
2017,06,22,16,10,20.10
2017,06,22,16,11,20.00
2017,06,22,16,12,20.00
2017,06,22,16,13,19.90
2017,06,22,16,14,20.00
2017,06,22,16,15,20.00
2017,06,22,16,16,20.10
2017,06,22,16,17,20.20
2017,06,22,16,18,20.30
2017,06,22,16,19,20.30
2017,06,22,16,20,20.40
2017,06,22,16,21,20.40
2017,06,22,16,22,20.40
2017,06,22,16,23,20.30
2017,06,22,16,24,20.30
2017,06,22,16,25,20.30
2017,06,22,16,26,20.20
2017,06,22,16,27,20.10
2017,06,22,16,28,20.00
2017,06,22,16,29,19.90
2017,06,22,16,30,19.80
2017,06,22,16,31,19.80
2017,06,22,16,32,19.80
2017,06,22,16,33,19.80
2017,06,22,16,34,19.90
2017,06,22,16,35,19.90
2017,06,22,16,36,19.90
2017,06,22,16,37,19.80
2017,06,22,16,38,19.80
2017,06,22,16,39,20.00
2017,06,22,16,40,20.10
2017,06,22,16,41,20.30
2017,06,22,16,42,20.40
2017,06,22,16,43,20.50
2017,06,22,16,44,20.60
2017,06,22,16,45,20.80
2017,06,22,16,46,21.00
2017,06,22,16,47,21.10
2017,06,22,16,48,21.20
2017,06,22,16,49,21.30
2017,06,22,16,50,21.30
2017,06,22,16,51,21.40
2017,06,22,16,52,21.30
2017,06,22,16,53,21.20
2017,06,22,16,54,21.10
2017,06,22,16,55,21.00
2017,06,22,16,56,20.90
2017,06,22,16,57,20.80
2017,06,22,16,58,20.80
2017,06,22,16,59,20.90
2017,06,22,17,00,21.00
2017,06,22,17,01,21.10
2017,06,22,17,02,21.20
2017,06,22,17,03,21.30
2017,06,22,17,04,21.40
2017,06,22,17,05,21.50
2017,06,22,17,06,21.60
2017,06,22,17,07,21.70
2017,06,22,17,08,21.80
2017,06,22,17,09,21.80
2017,06,22,17,10,21.90
2017,06,22,17,11,21.90
2017,06,22,17,12,21.90
2017,06,22,17,13,21.90
2017,06,22,17,14,21.90
2017,06,22,17,15,21.80
2017,06,22,17,16,21.80
2017,06,22,17,17,21.80
2017,06,22,17,18,21.80
2017,06,22,17,19,21.80
2017,06,22,17,20,21.70
2017,06,22,17,21,21.70
2017,06,22,17,22,21.70
2017,06,22,17,23,21.60
2017,06,22,17,24,21.60
2017,06,22,17,25,21.60
2017,06,22,17,26,21.50
2017,06,22,17,27,21.40
2017,06,22,17,28,21.30
2017,06,22,17,29,21.30
2017,06,22,17,30,21.20
2017,06,22,17,31,21.20
2017,06,22,17,32,21.10
2017,06,22,17,33,21.10
2017,06,22,17,34,21.10
2017,06,22,17,35,21.00
2017,06,22,17,36,20.90